Chillicothe, MO

1:50 AM CDT on September 15, 2019 (GMT -0500)
Chillicothe

Weather History for KCDJ - July, 2019

Change the Weather History Date:

Friday, July 19, 2019

  Actual Average (WUND) Record (WUND)
Temperature  
Mean Temperature 88 °F -  
Max Temperature 97 °F - - (-1)
Min Temperature 80 °F - - (-1)
Cooling Degree Days 23    
Growing Degree Days 38 (Base 50)    
Moisture  
Dew Point 74 °F    
Average Humidity 64    
Maximum Humidity 79    
Minimum Humidity 52    
Precipitation  
Precipitation 0.00 in - - ()
Sea Level Pressure  
Sea Level Pressure 29.78 in    
Wind  
Wind Speed 10 mph (South)    
Max Wind Speed 15 mph    
Max Gust Speed 25 mph    
Averages and records for this station are not official NWS values.
T = Trace of Precipitation, MM = Missing Value Source: NWS Daily Summary

Daily Weather History Graph

Daily Weather History Graph

Search for Another Location

Airport or City:

Astronomy

Jul. 19, 2019 Rise Set
Actual Time 6:01 AM CDT 8:39 PM CDT
Civil Twilight 5:30 AM CDT 9:10 PM CDT
Nautical Twilight 4:51 AM CDT 9:49 PM CDT
Astronomical Twilight 4:06 AM CDT 10:33 PM CDT
Moon 10:37 PM CDT (7/19) 8:28 AM CDT (7/19)
Length of Visible Light 15h 40m
Length of Day
14h 37m
Waning Gibbous, 93% of the Moon is Illuminated
Jul 19
Waning Gibbous
Jul 24
Last Quarter
Jul 31
New
Aug 7
First Quarter
Aug 15
Full

Hourly Weather History & Observations

Time (CDT) Temp. Heat Index Dew Point Humidity Pressure Visibility Wind Dir Wind Speed Gust Speed Precip Events Conditions
12:52 AM 84.9 °F 91.4 °F 73.0 °F 67% 29.77 in - South 10.4 mph 18.4 mph N/A   Unknown
1:52 AM 84.0 °F 89.6 °F 72.0 °F 67% 29.77 in - SSW 12.7 mph 18.4 mph N/A   Unknown
2:52 AM 84.0 °F 89.6 °F 72.0 °F 67% 29.76 in - SSW 15.0 mph 21.9 mph N/A   Unknown
4:52 AM 82.0 °F 86.7 °F 72.0 °F 71% 29.77 in - SSW 9.2 mph - N/A   Unknown
5:52 AM 81.0 °F 85.2 °F 72.0 °F 74% 29.78 in - South 6.9 mph - N/A   Unknown
6:52 AM 80.1 °F 84.2 °F 73.0 °F 79% 29.79 in - South 8.1 mph - N/A   Unknown
7:52 AM 82.0 °F 87.4 °F 73.0 °F 74% 29.80 in - SSW 10.4 mph - N/A   Unknown
8:52 AM 84.9 °F 91.4 °F 73.0 °F 67% 29.81 in - South 10.4 mph - N/A   Unknown
9:52 AM 87.1 °F 94.5 °F 73.0 °F 63% 29.81 in - South 9.2 mph - N/A   Unknown
10:52 AM 90.0 °F 99.0 °F 73.9 °F 59% 29.81 in - SSW 9.2 mph - N/A   Unknown
11:52 AM 91.9 °F 101.3 °F 73.9 °F 55% 29.81 in - SSW 10.4 mph 17.3 mph N/A   Unknown
12:52 PM 93.0 °F 104.6 °F 75.0 °F 56% 29.80 in - South 11.5 mph - N/A   Unknown
1:52 PM 95.0 °F 108.2 °F 75.9 °F 54% 29.79 in - South 10.4 mph - N/A   Unknown
2:52 PM 96.1 °F 109.4 °F 75.9 °F 52% 29.77 in - South 11.5 mph 20.7 mph N/A   Unknown
3:52 PM 96.1 °F 111.0 °F 77.0 °F 54% 29.76 in - South 9.2 mph 25.3 mph N/A   Unknown
4:52 PM 96.1 °F 111.0 °F 77.0 °F 54% 29.76 in - South 12.7 mph 23.0 mph N/A   Unknown
5:52 PM 95.0 °F 109.7 °F 77.0 °F 56% 29.74 in - South 15.0 mph 25.3 mph N/A   Unknown
7:52 PM 91.9 °F 105.9 °F 77.0 °F 62% 29.75 in - South 9.2 mph 25.3 mph N/A   Unknown
8:52 PM 90.0 °F 101.3 °F 75.9 °F 63% 29.75 in - South 10.4 mph - N/A   Unknown
9:52 PM 88.0 °F 98.5 °F 75.9 °F 67% 29.76 in - South 8.1 mph - N/A   Unknown
10:52 PM 87.1 °F 97.3 °F 75.9 °F 69% 29.78 in - South 6.9 mph - N/A   Unknown
11:52 PM 86.0 °F 95.1 °F 75.0 °F 70% 29.79 in - South 6.9 mph 16.1 mph N/A   Unknown